This demonstration page uses our WeatherBlox Daily Observations layout. Learn more.

Left ArrowRight Arrow

Hourly Observations for November 28, 2022

Temp ( °F °C ) Dew Point ( °F °C ) Humidity (%) Winds ( mph kmh ) Pressure ( in mb ) Visibility ( mi km ) Precip ( " mm )
12:55 am 00:55 Clear 24 -4.3 19 -7.2 80 80 E 5 7 29.91 1013 10 16 0.00 0.00
1:55 am 01:55 Clear 24 -4.5 19 -7.4 80 80 Calm 29.90 1013 10 16 0.00 0.00
2:55 am 02:55 Clear 22 -5.5 18 -7.8 84 84 E 5 7 29.89 1012 10 16 0.00 0.00
3:55 am 03:55 Clear 23 -4.9 18 -7.7 81 81 E 5 7 29.87 1012 10 16 0.00 0.00
4:55 am 04:55 undefined 23 -5.2 18 -7.8 82 82 ESE 6 9 29.86 1011 10 16 0.00 0.00
5:55 am 05:55 Clear 23 -5.1 19 -7.5 83 83 E 7 11 29.85 1011 10 16 0.00 0.00
6:55 am 06:55 Clear 24 -4.7 19 -7.5 81 81 E 6 9 29.85 1011 10 16 0.00 0.00
7:55 am 07:55 Sunny 26 -3.3 20 -6.4 79 79 ESE 8 13 29.84 1010 10 16 0.00 0.00
8:55 am 08:55 Partly Cloudy 31 -0.8 24 -4.5 76 76 ESE 7 11 29.83 1010 10 16 0.00 0.00
9:55 am 09:55 Sunny 38 3.4 26 -3.2 62 62 SSE 9 15 29.82 1010 10 16 0.00 0.00
10:55 am 10:55 Sunny 44 6.4 25 -3.8 48 48 S 14 22 29.81 1009 10 16 0.00 0.00
11:55 am 11:55 Sunny 49 9.5 26 -3.1 41 41 S 14 22 29.78 1009 10 16 0.00 0.00
12:55 pm 12:55 undefined 52 10.9 26 -3.6 36 36 S 12 19 29.75 1008 10 16 0.00 0.00
1:55 pm 13:55 Sunny 55 12.5 27 -2.6 35 35 S 10 17 29.72 1007 10 16 0.00 0.00
2:55 pm 14:55 undefined 55 12.7 28 -2 36 36 S 14 22 29.71 1006 10 16 0.00 0.00
3:55 pm 15:55 Sunny 54 12.2 30 -1 40 40 undefined N/A 29.70 1006 10 16 0.00 0.00
4:55 pm 16:55 Mostly Cloudy 50 10.1 29 -1.6 44 44 SSE 8 13 29.71 1006 10 16 0.00 0.00
5:55 pm 17:55 Mostly Cloudy 46 7.8 28 -2 50 50 SSE 8 13 29.72 1006 10 16 0.00 0.00
6:55 pm 18:55 Mostly Cloudy 44 6.9 26 -3.1 49 49 ESE 7 11 29.72 1006 10 16 0.00 0.00
7:55 pm 19:55 Clear 42 5.7 26 -3.4 52 52 ESE 6 9 29.74 1007 10 16 0.00 0.00
8:55 pm 20:55 Clear 44 6.7 27 -3 50 50 E 5 7 29.73 1007 10 16 0.00 0.00
9:55 pm 21:55 Mostly Clear 43 5.9 27 -3 53 53 NE 6 9 29.71 1006 10 16 0.00 0.00
10:55 pm 22:55 Cloudy 42 5.6 27 -3 54 54 NE 7 11 29.68 1005 10 16 0.00 0.00
11:55 pm 23:55 Cloudy 42 5.8 27 -3 53 53 NE 6 9 29.67 1005 10 16 0.00 0.00

Powered by AerisWeather